Home   Weather   Toronto   Past weeks

Flag for Canada Past Weather in Toronto, Ontario, Canada — Yesterday and Last 2 Weeks

Now
64 °F

Passing clouds.


Feels Like: 64 °F
Forecast: 55 / 64 °F
Wind: 9 mph from Northeast

Location: Toronto Pearson International Airport

Current Time: May 23, 2017 at 10:24:47 pm

Latest Report: May 23, 2017 at 9:00 pm


Visibility: 15 mi

Pressure: 29.76 "Hg

Humidity: 68%

Dew Point: 54 °F

Location of TorontoLocation

Past Weather in Toronto — Graph

°F

Toronto Temperature Yesterday

Maximum temperature yesterday: 63 °F (at 5:00 pm)
Minimum temperature yesterday: 54 °F (at 12:00 am)
Average temperature yesterday: 57 °F

High & Low Weather Summary for the Past Weeks

 TemperatureHumidityPressure
High86 °F (May 17, 3:00 pm)100% (May 21, 5:54 pm)30.37 "Hg (May 21, 5:54 pm)
Low36 °F (May 9, 6:04 am)23% (May 20, 3:00 pm)29.65 "Hg (May 18, 6:00 pm)
Average56 °F64%29.96 "Hg
* Reported May 8 9:00 pm — May 23 9:00 pm, Toronto. Weather by CustomWeather, © 2017

Note: Actual official high and low records may vary slightly from our data, if they occured in-between our weather recording intervals... More about our weather records

Advertising

Toronto Weather History for the Previous 24 Hours

Scroll right to see more
 ConditionsComfort  
Time TempWeatherWind HumidityBarometerVisibility
9:00 pm
Tue, May 23
64 °FPassing clouds.9 mph68%29.76 "Hg15 mi
8:00 pm66 °FPartly sunny.6 mph64%29.78 "Hg15 mi
7:00 pm64 °FBroken clouds.5 mph73%29.78 "Hg15 mi
6:42 pm63 °FScattered showers. Broken clouds.5 mph73%29.78 "Hg15 mi
6:04 pm66 °FSprinkles. Broken clouds.3 mph56%29.78 "Hg15 mi
5:00 pm66 °FScattered showers. Partly sunny.7 mph56%29.79 "Hg15 mi
4:00 pm72 °FBroken clouds.10 mph44%29.79 "Hg15 mi
3:00 pm72 °FBroken clouds.3 mph47%29.81 "Hg15 mi
2:00 pm70 °FBroken clouds.13 mph50%29.83 "Hg15 mi
1:00 pm70 °FBroken clouds.13 mph57%29.84 "Hg15 mi
12:00 pm70 °FBroken clouds.12 mph53%29.86 "Hg15 mi
11:00 am66 °FMostly cloudy.10 mph60%29.88 "Hg15 mi
10:00 am66 °FBroken clouds.8 mph60%29.88 "Hg15 mi
9:00 am59 °FBroken clouds.5 mph72%29.89 "Hg15 mi
8:00 am55 °FPartly sunny.5 mph77%29.89 "Hg15 mi
7:00 am52 °FBroken clouds.3 mph88%29.89 "Hg15 mi
6:00 am50 °FPartly sunny.3 mph88%29.90 "Hg15 mi
5:00 am50 °FPartly cloudy.No wind88%29.90 "Hg15 mi
4:00 am50 °FPassing clouds.5 mph88%29.92 "Hg15 mi
3:00 am50 °FClear.6 mph88%29.93 "Hg15 mi
2:00 am52 °FClear.5 mph82%29.93 "Hg15 mi
1:00 am52 °FClear.8 mph82%29.93 "Hg15 mi
12:00 am52 °FClear.6 mph82%29.95 "Hg15 mi
11:00 pm
Mon, May 22
55 °FClear.7 mph72%29.96 "Hg15 mi
10:00 pm57 °FClear.10 mph67%29.96 "Hg15 mi
Weather by CustomWeather, © 2017

See weather overviewHow to use our weather pages